| time (UTC) | temp F | wind direction | speed knots | gust knots | rain 1hr in | rain 24hr in | rain mn in | humidity % | barometer mb |
| 20260903100022 | 56 | 110 | 0.9 | 3.5 | 0.00 | 0.21 | 0.00 | 66 | 1006.3 |
| 20260903094520 | 56 | 131 | 0.0 | 2.6 | 0.00 | 0.21 | 0.00 | 66 | 1006.2 |
| 20260903093031 | 56 | 187 | 0.0 | 6.1 | 0.00 | 0.21 | 0.00 | 66 | 1006.3 |
| 20260903091529 | 56 | 38 | 0.0 | 5.2 | 0.00 | 0.21 | 0.00 | 66 | 1006.3 |
| 20260903090016 | 56 | 107 | 0.0 | 5.2 | 0.00 | 0.21 | 0.00 | 66 | 1006.3 |
| 20260903084512 | 56 | 150 | 0.0 | 4.3 | 0.00 | 0.21 | 0.00 | 66 | 1006.2 |
| 20260903083010 | 55 | 173 | 0.0 | 4.3 | 0.00 | 0.21 | 0.00 | 67 | 1006.2 |
| 20260903081509 | 55 | 71 | 0.0 | 2.6 | 0.00 | 0.21 | 0.00 | 68 | 1006.1 |
| 20260903080007 | 55 | 121 | 0.0 | 4.3 | 0.00 | 0.21 | 0.00 | 67 | 1006.2 |
| 20260903074506 | 55 | 41 | 0.9 | 3.5 | 0.00 | 0.21 | 0.00 | 67 | 1006.0 |
| 20260903073014 | 55 | 127 | 0.9 | 2.6 | 0.00 | 0.21 | 0.00 | 68 | 1005.9 |
| 20260903071503 | 55 | 192 | 0.0 | 3.5 | 0.00 | 0.21 | 0.00 | 67 | 1006.0 |
| 20260903070001 | 55 | 32 | 0.0 | 3.5 | 0.00 | 0.21 | 0.21 | 67 | 1005.9 |
| 20260903064501 | 55 | 153 | 0.9 | 5.2 | 0.00 | 0.21 | 0.21 | 67 | 1005.9 |
| 20260903063059 | 55 | 123 | 0.0 | 1.7 | 0.00 | 0.21 | 0.21 | 67 | 1005.9 |
| 20260903061604 | 56 | 181 | 0.0 | 2.6 | 0.00 | 0.21 | 0.21 | 67 | 1006.1 |
| 20260903060057 | 56 | 188 | 0.0 | 3.5 | 0.00 | 0.21 | 0.21 | 66 | 1006.0 |
| 20260903054555 | 56 | 238 | 0.0 | 3.5 | 0.00 | 0.21 | 0.21 | 66 | 1006.0 |
| 20260903053107 | 56 | 52 | 1.7 | 6.1 | 0.00 | 0.21 | 0.21 | 67 | 1006.0 |
| 20260903051553 | 56 | 262 | 0.0 | 5.2 | 0.00 | 0.21 | 0.21 | 67 | 1005.8 |
| 20260903050051 | 56 | 118 | 0.9 | 9.6 | 0.00 | 0.21 | 0.21 | 67 | 1005.7 |
| 20260903044555 | 56 | 152 | 0.9 | 7.0 | 0.00 | 0.21 | 0.21 | 67 | 1005.5 |
| 20260903043049 | 56 | 240 | 0.0 | 3.5 | 0.00 | 0.21 | 0.21 | 67 | 1005.2 |
| 20260903041548 | 57 | 17 | 0.0 | 6.1 | 0.00 | 0.21 | 0.21 | 68 | 1005.3 |
| 20260903040047 | 57 | 74 | 0.0 | 6.1 | 0.00 | 0.21 | 0.21 | 68 | 1005.2 |
| 20260903034546 | 57 | 298 | 0.9 | 4.3 | 0.00 | 0.21 | 0.21 | 68 | 1005.0 |
| 20260903033050 | 57 | 70 | 0.0 | 7.8 | 0.00 | 0.21 | 0.21 | 68 | 1004.9 |
| 20260903031550 | 57 | 101 | 1.7 | 8.7 | 0.00 | 0.21 | 0.21 | 68 | 1004.6 |
| 20260903030107 | 57 | 151 | 3.5 | 9.6 | 0.00 | 0.21 | 0.21 | 68 | 1004.5 |
| 20260903024543 | 57 | 209 | 1.7 | 7.0 | 0.00 | 0.21 | 0.21 | 68 | 1004.0 |
| 20260903023042 | 58 | 204 | 0.9 | 8.7 | 0.00 | 0.21 | 0.21 | 67 | 1003.9 |
| 20260903021540 | 58 | 119 | 0.9 | 8.7 | 0.00 | 0.21 | 0.21 | 66 | 1003.7 |
| 20260903020040 | 58 | 197 | 2.6 | 7.8 | 0.00 | 0.21 | 0.21 | 65 | 1003.5 |
| 20260903014539 | 59 | 179 | 5.2 | 12.2 | 0.00 | 0.21 | 0.21 | 65 | 1003.5 |
| 20260903013044 | 59 | 211 | 2.6 | 12.2 | 0.00 | 0.21 | 0.21 | 66 | 1003.3 |
| 20260903011540 | 59 | 107 | 5.2 | 13.9 | 0.00 | 0.21 | 0.21 | 65 | 1003.0 |
| 20260903010039 | 59 | 208 | 4.3 | 14.8 | 0.00 | 0.21 | 0.21 | 67 | 1002.8 |
| 20260903004536 | 59 | 148 | 1.7 | 8.7 | 0.00 | 0.21 | 0.21 | 78 | 1002.8 |
| 20260903003039 | 58 | 59 | 0.0 | 10.4 | 0.00 | 0.21 | 0.21 | 75 | 1002.8 |
| 20260903001532 | 58 | 56 | 0.9 | 7.0 | 0.00 | 0.21 | 0.21 | 75 | 1002.5 |
| 20260903000031 | 57 | 164 | 0.9 | 13.9 | 0.02 | 0.21 | 0.21 | 75 | 1002.7 |
| 20260902234530 | 57 | 199 | 0.9 | 7.8 | 0.05 | 0.21 | 0.21 | 74 | 1002.6 |
| 20260902233029 | 57 | 73 | 1.7 | 7.0 | 0.08 | 0.21 | 0.21 | 72 | 1002.6 |
| 20260902231531 | 57 | 5 | 0.9 | 9.6 | 0.10 | 0.21 | 0.21 | 71 | 1002.9 |
| 20260902230024 | 58 | 119 | 0.9 | 10.4 | 0.10 | 0.19 | 0.19 | 70 | 1003.2 |
| 20260902224542 | 58 | 132 | 0.9 | 5.2 | 0.06 | 0.15 | 0.15 | 70 | 1003.4 |
| 20260902223021 | 58 | 159 | 0.0 | 3.5 | 0.05 | 0.12 | 0.12 | 69 | 1003.4 |
| 20260902221524 | 59 | 200 | 0.0 | 2.6 | 0.05 | 0.11 | 0.11 | 69 | 1003.6 |
| 20260902220043 | 59 | 219 | 0.0 | 2.6 | 0.04 | 0.09 | 0.09 | 68 | 1003.5 |
| 20260902214518 | 60 | 275 | 0.0 | 7.8 | 0.03 | 0.08 | 0.08 | 68 | 1003.7 |
| 20260902213017 | 60 | 158 | 0.0 | 7.0 | 0.02 | 0.07 | 0.07 | 67 | 1003.8 |
| 20260902211517 | 61 | 205 | 2.6 | 9.6 | 0.01 | 0.06 | 0.06 | 65 | 1003.8 |
| 20260902210021 | 62 | 262 | 2.6 | 7.8 | 0.00 | 0.05 | 0.05 | 65 | 1003.7 |
| 20260902204522 | 62 | 251 | 1.7 | 9.6 | 0.00 | 0.05 | 0.05 | 66 | 1003.7 |
| 20260902203015 | 62 | 219 | 0.9 | 9.6 | 0.01 | 0.05 | 0.05 | 65 | 1003.6 |
| 20260902201534 | 63 | 227 | 1.7 | 6.1 | 0.05 | 0.05 | 0.05 | 66 | 1003.6 |
| 20260902200015 | 63 | 234 | 0.0 | 2.6 | 0.05 | 0.05 | 0.05 | 69 | 1003.7 |
| 20260902194527 | 62 | 180 | 0.0 | 6.1 | 0.05 | 0.05 | 0.05 | 68 | 1003.8 |
| 20260902193113 | 64 | 238 | 3.5 | 10.4 | 0.04 | 0.04 | 0.04 | 62 | 1004.2 |
| 20260902191511 | 66 | 167 | 1.7 | 7.0 | 0.00 | 0.00 | 0.00 | 53 | 1003.7 |
| 20260902190013 | 67 | 150 | 0.0 | 8.7 | 0.00 | 0.00 | 0.00 | 52 | 1003.8 |
| 20260902184514 | 67 | 144 | 1.7 | 8.7 | 0.00 | 0.00 | 0.00 | 53 | 1003.9 |
| 20260902183004 | 64 | 169 | 0.9 | 5.2 | 0.00 | 0.00 | 0.00 | 60 | 1004.1 |
| 20260902181501 | 63 | 159 | 0.9 | 5.2 | 0.00 | 0.00 | 0.00 | 61 | 1004.4 |
| 20260902180104 | 62 | 165 | 0.9 | 5.2 | 0.00 | 0.00 | 0.00 | 62 | 1004.4 |
| 20260902174558 | 63 | 205 | 0.0 | 4.3 | 0.00 | 0.00 | 0.00 | 62 | 1004.6 |
| 20260902173108 | 62 | 178 | 0.9 | 6.1 | 0.00 | 0.00 | 0.00 | 63 | 1004.7 |
| 20260902171559 | 62 | 163 | 0.0 | 7.0 | 0.00 | 0.00 | 0.00 | 62 | 1004.8 |
| 20260902170054 | 62 | 156 | 1.7 | 4.3 | 0.00 | 0.00 | 0.00 | 62 | 1004.8 |
| 20260902164601 | 62 | 195 | 0.0 | 5.2 | 0.00 | 0.00 | 0.00 | 63 | 1005.1 |
| 20260902163100 | 62 | 212 | 0.0 | 2.6 | 0.00 | 0.00 | 0.00 | 63 | 1005.0 |
| 20260902161552 | 62 | 163 | 0.0 | 6.1 | 0.00 | 0.00 | 0.00 | 63 | 1005.2 |
| 20260902160057 | 62 | 204 | 0.9 | 3.5 | 0.00 | 0.00 | 0.00 | 62 | 1005.3 |
| 20260902154550 | 62 | 182 | 1.7 | 6.1 | 0.00 | 0.00 | 0.00 | 62 | 1005.3 |
| 20260902153053 | 61 | 182 | 1.7 | 7.8 | 0.00 | 0.00 | 0.00 | 62 | 1005.3 |
| 20260902151545 | 61 | 271 | 2.6 | 7.8 | 0.00 | 0.00 | 0.00 | 63 | 1005.6 |
| 20260902150040 | 60 | 114 | 0.0 | 8.7 | 0.00 | 0.00 | 0.00 | 65 | 1005.8 |
| 20260902144540 | 59 | 192 | 0.9 | 7.0 | 0.00 | 0.00 | 0.00 | 65 | 1006.0 |
| 20260902143038 | 59 | 95 | 0.9 | 9.6 | 0.00 | 0.00 | 0.00 | 66 | 1006.1 |
| 20260902141537 | 59 | 111 | 0.0 | 6.1 | 0.00 | 0.00 | 0.00 | 66 | 1006.1 |
| 20260902140035 | 59 | 171 | 0.0 | 9.6 | 0.00 | 0.00 | 0.00 | 66 | 1006.1 |
| 20260902134542 | 59 | 242 | 0.9 | 9.6 | 0.00 | 0.00 | 0.00 | 66 | 1006.3 |
| 20260902133035 | 59 | 161 | 0.9 | 12.2 | 0.00 | 0.00 | 0.00 | 66 | 1006.1 |
| 20260902131540 | 59 | 158 | 1.7 | 9.6 | 0.00 | 0.00 | 0.00 | 65 | 1006.3 |
| 20260902130033 | 59 | 162 | 0.0 | 6.1 | 0.00 | 0.00 | 0.00 | 66 | 1006.4 |
| 20260902124530 | 59 | 213 | 1.7 | 7.0 | 0.00 | 0.00 | 0.00 | 67 | 1006.6 |
| 20260902123033 | 59 | 264 | 1.7 | 7.0 | 0.00 | 0.00 | 0.00 | 67 | 1006.6 |
| 20260902121527 | 59 | 136 | 0.9 | 5.2 | 0.00 | 0.00 | 0.00 | 67 | 1006.6 |
| 20260902120026 | 59 | 79 | 1.7 | 5.2 | 0.00 | 0.00 | 0.00 | 67 | 1006.7 |
| 20260902114528 | 59 | 138 | 0.0 | 7.8 | 0.00 | 0.00 | 0.00 | 68 | 1006.9 |
| 20260902113023 | 59 | 152 | 1.7 | 7.0 | 0.00 | 0.00 | 0.00 | 68 | 1007.0 |
| 20260902111522 | 59 | 129 | 1.7 | 6.1 | 0.00 | 0.00 | 0.00 | 68 | 1006.9 |
| 20260902110033 | 59 | 153 | 0.0 | 4.3 | 0.00 | 0.00 | 0.00 | 68 | 1007.1 |
| 20260902104519 | 59 | 132 | 1.7 | 7.8 | 0.00 | 0.00 | 0.00 | 69 | 1007.2 |
| 20260902103020 | 58 | 60 | 0.0 | 2.6 | 0.00 | 0.00 | 0.00 | 68 | 1007.4 |
| 20260902101518 | 58 | 84 | 0.0 | 5.2 | 0.00 | 0.00 | 0.00 | 68 | 1007.4 |